UAL343 KJFK-KORD

Flight info

Callsign UAL343
Flight time 2h 3m
Altitude 28000
Route COATE LVZ FQM ETG CIP DJB
Aircraft B722/M-SDFGHIRWY/S

Departure

Time 2026-05-08 23:24
Airport John F. Kennedy International Airport (KJFK)

Arrival

Time 2026-05-09 01:28
Airport Chicago O'Hare International Airport (KORD)
Time Latitude Longitude Altitude Speed Heading
2026-05-08 22:33 40.64454 -73.77523 24 ft 0 kts 300°
2026-05-08 23:09 40.64451 -73.77518 25 ft 4 kts 305°
2026-05-08 23:09 40.64438 -73.77496 24 ft 4 kts 327°
2026-05-08 23:09 40.64416 -73.77491 26 ft 4 kts 11°
2026-05-08 23:09 40.64395 -73.77502 26 ft 1 kts 29°
2026-05-08 23:10 40.64392 -73.77504 24 ft 0 kts 29°
2026-05-08 23:15 40.64397 -73.77500 24 ft 3 kts 29°
2026-05-08 23:15 40.64429 -73.77477 24 ft 7 kts 29°
2026-05-08 23:15 40.64467 -73.77432 25 ft 8 kts 70°
2026-05-08 23:16 40.64472 -73.77353 24 ft 10 kts 89°
2026-05-08 23:16 40.64473 -73.77269 24 ft 8 kts 90°
2026-05-08 23:16 40.64472 -73.77246 24 ft 0 kts 98°
2026-05-08 23:17 40.64471 -73.77238 27 ft 2 kts 101°
2026-05-08 23:17 40.64454 -73.77189 25 ft 10 kts 115°
2026-05-08 23:17 40.64430 -73.77080 25 ft 14 kts 104°
2026-05-08 23:17 40.64399 -73.76951 24 ft 16 kts 121°
2026-05-08 23:18 40.64297 -73.76882 24 ft 19 kts 181°
2026-05-08 23:18 40.64161 -73.76891 24 ft 20 kts 186°
2026-05-08 23:18 40.64017 -73.76911 24 ft 21 kts 184°
2026-05-08 23:18 40.63863 -73.76912 26 ft 23 kts 180°
2026-05-08 23:19 40.63699 -73.76916 24 ft 24 kts 181°
2026-05-08 23:19 40.63526 -73.76920 24 ft 25 kts 182°
2026-05-08 23:19 40.63346 -73.76945 24 ft 27 kts 183°
2026-05-08 23:19 40.63162 -73.76951 24 ft 26 kts 188°
2026-05-08 23:20 40.63009 -73.77039 24 ft 22 kts 211°
2026-05-08 23:20 40.62908 -73.77117 25 ft 6 kts 210°
2026-05-08 23:20 40.62906 -73.77119 25 ft 0 kts 210°
2026-05-08 23:22 40.62905 -73.77120 26 ft 2 kts 210°
2026-05-08 23:22 40.62872 -73.77145 25 ft 8 kts 210°
2026-05-08 23:22 40.62822 -73.77195 25 ft 9 kts 252°
2026-05-08 23:22 40.62828 -73.77237 25 ft 0 kts 300°
2026-05-08 23:23 40.62901 -73.77399 27 ft 49 kts 301°
2026-05-08 23:24 40.63169 -73.77993 27 ft 100 kts 301°
2026-05-08 23:24 40.63616 -73.78976 26 ft 148 kts 302°
2026-05-08 23:24 40.64175 -73.80229 309 ft 164 kts 301°
2026-05-08 23:24 40.64750 -73.81556 784 ft 168 kts 300°
2026-05-08 23:25 40.65212 -73.82952 1417 ft 168 kts 278°
2026-05-08 23:25 40.64988 -73.84490 1856 ft 184 kts 239°
2026-05-08 23:25 40.64034 -73.85614 2597 ft 178 kts 218°
2026-05-08 23:25 40.62967 -73.86479 3197 ft 187 kts 203°
2026-05-08 23:26 40.61617 -73.86408 3529 ft 213 kts 157°
2026-05-08 23:26 40.60603 -73.85016 4154 ft 213 kts 115°
2026-05-08 23:26 40.60305 -73.83086 4595 ft 226 kts 88°
2026-05-08 23:26 40.60445 -73.81030 4954 ft 223 kts 81°
2026-05-08 23:27 40.60699 -73.78960 5001 ft 241 kts 78°
2026-05-08 23:27 40.60915 -73.77499 5134 ft 246 kts 78°
2026-05-08 23:27 40.61259 -73.75212 5446 ft 267 kts 78°
2026-05-08 23:27 40.61636 -73.72702 5756 ft 292 kts 78°
2026-05-08 23:28 40.62050 -73.69989 6049 ft 316 kts 78°
2026-05-08 23:28 40.62511 -73.67031 6325 ft 339 kts 78°
2026-05-08 23:28 40.62999 -73.63902 6725 ft 356 kts 78°
2026-05-08 23:28 40.63502 -73.60647 7194 ft 369 kts 75°
2026-05-08 23:29 40.64512 -73.57523 7687 ft 373 kts 50°
2026-05-08 23:29 40.66340 -73.55140 8414 ft 369 kts 33°
2026-05-08 23:29 40.68406 -73.53209 9151 ft 370 kts 28°
2026-05-08 23:29 40.70562 -73.51330 9905 ft 374 kts 28°
2026-05-08 23:30 40.72740 -73.49400 10625 ft 380 kts 27°
2026-05-08 23:30 40.74941 -73.47414 11425 ft 382 kts 26°
2026-05-08 23:30 40.77254 -73.45837 12254 ft 366 kts
2026-05-08 23:30 40.79700 -73.45604 13288 ft 343 kts 346°
2026-05-08 23:31 40.82013 -73.46167 14180 ft 336 kts 339°
2026-05-08 23:31 40.84275 -73.46999 14728 ft 341 kts 337°
2026-05-08 23:31 40.86548 -73.47926 15353 ft 343 kts 336°
2026-05-08 23:31 40.88811 -73.48946 15960 ft 342 kts 329°
2026-05-08 23:32 40.90614 -73.50828 16522 ft 334 kts 304°
2026-05-08 23:32 40.91552 -73.53614 17010 ft 340 kts 283°
2026-05-08 23:32 40.91559 -73.56846 17019 ft 364 kts 266°
2026-05-08 23:32 40.91255 -73.60243 17016 ft 381 kts 269°
2026-05-08 23:33 40.91204 -73.63769 17006 ft 383 kts 277°
2026-05-08 23:33 40.91776 -73.67164 17001 ft 377 kts 289°
2026-05-08 23:33 40.92787 -73.70341 17002 ft 374 kts 295°
2026-05-08 23:33 40.93986 -73.73387 17000 ft 372 kts 297°
2026-05-08 23:34 40.95189 -73.76414 17000 ft 371 kts 297°
2026-05-08 23:34 40.96385 -73.79430 16997 ft 368 kts 297°
2026-05-08 23:34 40.97561 -73.82396 16993 ft 354 kts 297°
2026-05-08 23:34 40.98670 -73.85188 17070 ft 334 kts 297°
2026-05-08 23:35 40.99765 -73.87932 17590 ft 338 kts 297°
2026-05-08 23:35 41.00794 -73.90735 18151 ft 341 kts 292°
2026-05-08 23:35 41.01609 -73.93705 18658 ft 345 kts 289°
2026-05-08 23:35 41.02375 -73.96680 19200 ft 346 kts 289°
2026-05-08 23:36 41.03148 -73.99711 19714 ft 348 kts 289°
2026-05-08 23:36 41.03926 -74.02747 20196 ft 350 kts 289°
2026-05-08 23:36 41.04678 -74.05824 20687 ft 352 kts 286°
2026-05-08 23:36 41.05280 -74.08979 21202 ft 354 kts 284°
2026-05-08 23:37 41.05864 -74.12155 21754 ft 356 kts 284°
2026-05-08 23:37 41.06442 -74.15346 22315 ft 357 kts 284°
2026-05-08 23:37 41.07019 -74.18556 22851 ft 359 kts 284°
2026-05-08 23:37 41.07562 -74.21804 23359 ft 361 kts 283°
2026-05-08 23:38 41.08078 -74.25074 23825 ft 363 kts 282°
2026-05-08 23:38 41.08590 -74.28356 24266 ft 364 kts 282°
2026-05-08 23:38 41.09099 -74.31654 24693 ft 366 kts 282°
2026-05-08 23:38 41.09608 -74.34939 25101 ft 367 kts 282°
2026-05-08 23:39 41.10130 -74.38272 25515 ft 368 kts 282°
2026-05-08 23:39 41.10656 -74.41597 25890 ft 370 kts 282°
2026-05-08 23:39 41.11147 -74.44947 26268 ft 371 kts 279°
2026-05-08 23:39 41.11492 -74.48299 26685 ft 371 kts 278°
2026-05-08 23:40 41.11811 -74.51710 27046 ft 373 kts 278°
2026-05-08 23:40 41.12166 -74.55125 27394 ft 375 kts 279°
2026-05-08 23:40 41.12567 -74.58542 27770 ft 376 kts 279°
2026-05-08 23:40 41.13005 -74.61972 27959 ft 381 kts 280°
2026-05-08 23:41 41.13475 -74.65477 27960 ft 390 kts 280°
2026-05-08 23:41 41.13944 -74.68933 27955 ft 371 kts 280°
2026-05-08 23:41 41.14406 -74.72336 27950 ft 380 kts 280°
2026-05-08 23:41 41.14878 -74.75828 27958 ft 389 kts 280°
2026-05-08 23:42 41.15356 -74.79395 27965 ft 393 kts 280°
2026-05-08 23:42 41.15831 -74.82963 27963 ft 392 kts 280°
2026-05-08 23:42 41.16304 -74.86523 27974 ft 392 kts 280°
2026-05-08 23:42 41.16786 -74.90087 27966 ft 392 kts 280°
2026-05-08 23:43 41.17278 -74.93608 27967 ft 392 kts 280°
2026-05-08 23:43 41.17754 -74.97180 27973 ft 392 kts 280°
2026-05-08 23:43 41.18219 -75.00755 27963 ft 392 kts 279°
2026-05-08 23:43 41.18682 -75.04317 27963 ft 392 kts 280°
2026-05-08 23:44 41.19150 -75.07880 27964 ft 392 kts 280°
2026-05-08 23:44 41.19622 -75.11449 27959 ft 391 kts 280°
2026-05-08 23:44 41.20094 -75.15004 27958 ft 392 kts 280°
2026-05-08 23:44 41.20569 -75.18563 27956 ft 391 kts 280°
2026-05-08 23:45 41.21043 -75.22125 27956 ft 392 kts 280°
2026-05-08 23:45 41.21519 -75.25689 27949 ft 392 kts 280°
2026-05-08 23:45 41.21991 -75.29255 27952 ft 392 kts 280°
2026-05-08 23:45 41.22463 -75.32831 27954 ft 392 kts 280°
2026-05-08 23:46 41.22938 -75.36399 27958 ft 392 kts 280°
2026-05-08 23:46 41.23416 -75.39913 27947 ft 392 kts 281°
2026-05-08 23:46 41.23983 -75.43461 27959 ft 392 kts 282°
2026-05-08 23:46 41.24592 -75.46990 27964 ft 392 kts 281°
2026-05-08 23:47 41.25049 -75.50568 27957 ft 392 kts 278°
2026-05-08 23:47 41.25409 -75.54150 27955 ft 392 kts 278°
2026-05-08 23:47 41.25842 -75.57732 27958 ft 392 kts 280°
2026-05-08 23:47 41.26333 -75.61292 27963 ft 392 kts 280°
2026-05-08 23:48 41.26795 -75.64864 27957 ft 392 kts 279°
2026-05-08 23:48 41.27212 -75.68442 27961 ft 392 kts 278°
2026-05-08 23:48 41.27550 -75.72040 27955 ft 392 kts 276°
2026-05-08 23:48 41.27743 -75.75654 27960 ft 392 kts 274°
2026-05-08 23:49 41.27910 -75.79275 27950 ft 392 kts 275°
2026-05-08 23:49 41.28157 -75.82865 27957 ft 389 kts 276°
2026-05-08 23:49 41.28427 -75.86451 27949 ft 390 kts 276°
2026-05-08 23:49 41.28652 -75.90049 27952 ft 390 kts 275°
2026-05-08 23:50 41.28855 -75.93639 27959 ft 390 kts 275°
2026-05-08 23:50 41.29081 -75.97238 27957 ft 390 kts 276°
2026-05-08 23:50 41.29318 -76.00787 27961 ft 390 kts 276°
2026-05-08 23:50 41.29546 -76.04386 27962 ft 390 kts 275°
2026-05-08 23:51 41.29760 -76.07980 27952 ft 390 kts 275°
2026-05-08 23:51 41.29980 -76.11577 27950 ft 390 kts 275°
2026-05-08 23:51 41.30206 -76.15171 27961 ft 390 kts 276°
2026-05-08 23:51 41.30426 -76.18746 27954 ft 388 kts 275°
2026-05-08 23:52 41.30641 -76.22327 27948 ft 388 kts 275°
2026-05-08 23:52 41.30856 -76.25905 27943 ft 388 kts 275°
2026-05-08 23:52 41.31073 -76.29490 27949 ft 388 kts 275°
2026-05-08 23:52 41.31289 -76.33078 27947 ft 389 kts 275°
2026-05-08 23:53 41.31502 -76.36661 27929 ft 389 kts 275°
2026-05-08 23:53 41.31710 -76.40251 27943 ft 389 kts 275°
2026-05-08 23:53 41.32093 -76.43799 27921 ft 390 kts 285°
2026-05-08 23:53 41.32995 -76.47209 27943 ft 390 kts 288°
2026-05-08 23:54 41.33903 -76.50611 27959 ft 389 kts 286°
2026-05-08 23:54 41.34315 -76.54128 27928 ft 386 kts 269°
2026-05-08 23:54 41.33700 -76.57626 27958 ft 393 kts 257°
2026-05-08 23:55 41.32949 -76.64679 27943 ft 386 kts 273°
2026-05-08 23:55 41.33297 -76.68209 27950 ft 385 kts 282°
2026-05-08 23:55 41.33763 -76.71721 27946 ft 386 kts 278°
2026-05-08 23:55 41.34101 -76.75265 27942 ft 386 kts 277°
2026-05-08 23:56 41.34213 -76.78833 27938 ft 387 kts 270°
2026-05-08 23:56 41.34024 -76.82415 27941 ft 388 kts 267°
2026-05-08 23:56 41.33737 -76.85979 27937 ft 388 kts 266°
2026-05-08 23:56 41.33443 -76.89553 27925 ft 386 kts 266°
2026-05-08 23:57 41.33146 -76.93113 27923 ft 387 kts 266°
2026-05-08 23:57 41.32848 -76.96634 27927 ft 387 kts 266°
2026-05-08 23:57 41.32538 -77.00237 27929 ft 387 kts 266°
2026-05-08 23:57 41.32233 -77.03750 27929 ft 387 kts 266°
2026-05-08 23:58 41.31925 -77.07319 27926 ft 388 kts 266°
2026-05-08 23:58 41.31619 -77.10887 27924 ft 388 kts 266°
2026-05-08 23:58 41.31318 -77.14439 27930 ft 388 kts 266°
2026-05-08 23:58 41.31015 -77.18006 27924 ft 388 kts 266°
2026-05-08 23:59 41.30711 -77.21578 27927 ft 387 kts 266°
2026-05-08 23:59 41.30405 -77.25139 27940 ft 387 kts 266°
2026-05-08 23:59 41.30098 -77.28691 27939 ft 387 kts 266°
2026-05-08 23:59 41.29788 -77.32255 27938 ft 387 kts 266°
2026-05-09 00:00 41.29479 -77.35801 27941 ft 385 kts 266°
2026-05-09 00:00 41.29171 -77.39340 27900 ft 386 kts 266°
2026-05-09 00:00 41.28883 -77.42826 27928 ft 384 kts 266°
2026-05-09 00:00 41.28569 -77.46363 27925 ft 385 kts 266°
2026-05-09 00:01 41.28248 -77.49901 27925 ft 385 kts 266°
2026-05-09 00:01 41.27927 -77.53430 27937 ft 385 kts 266°
2026-05-09 00:01 41.27600 -77.56965 27940 ft 386 kts 266°
2026-05-09 00:01 41.27278 -77.60499 27933 ft 384 kts 266°
2026-05-09 00:02 41.26972 -77.64018 27942 ft 383 kts 266°
2026-05-09 00:02 41.26654 -77.67535 27935 ft 383 kts 266°
2026-05-09 00:02 41.26334 -77.71053 27948 ft 384 kts 266°
2026-05-09 00:02 41.26016 -77.74586 27934 ft 384 kts 266°
2026-05-09 00:03 41.25698 -77.78107 27938 ft 384 kts 266°
2026-05-09 00:03 41.25391 -77.81639 27945 ft 384 kts 266°
2026-05-09 00:03 41.25085 -77.85172 27939 ft 384 kts 266°
2026-05-09 00:03 41.24772 -77.88699 27949 ft 384 kts 266°
2026-05-09 00:04 41.24461 -77.92177 27942 ft 383 kts 266°
2026-05-09 00:04 41.24145 -77.95691 27948 ft 384 kts 266°
2026-05-09 00:04 41.23825 -77.99204 27953 ft 381 kts 266°
2026-05-09 00:04 41.23501 -78.02702 27944 ft 382 kts 266°
2026-05-09 00:05 41.23162 -78.06204 27951 ft 382 kts 265°
2026-05-09 00:05 41.22806 -78.09701 27954 ft 382 kts 266°
2026-05-09 00:05 41.22495 -78.13208 27945 ft 381 kts 268°
2026-05-09 00:05 41.22204 -78.16726 27946 ft 382 kts 265°
2026-05-09 00:06 41.21889 -78.20219 27941 ft 381 kts 269°
2026-05-09 00:06 41.21777 -78.23736 27957 ft 380 kts 270°
2026-05-09 00:06 41.21649 -78.27240 27947 ft 380 kts 270°
2026-05-09 00:06 41.21516 -78.30744 27945 ft 380 kts 270°
2026-05-09 00:07 41.21381 -78.34282 27957 ft 387 kts 269°
2026-05-09 00:07 41.21243 -78.37817 27959 ft 388 kts 269°
2026-05-09 00:07 41.21099 -78.41386 27952 ft 387 kts 269°
2026-05-09 00:07 41.20946 -78.44958 27955 ft 387 kts 269°
2026-05-09 00:08 41.20776 -78.48535 27953 ft 388 kts 269°
2026-05-09 00:08 41.20602 -78.52105 27953 ft 387 kts 269°
2026-05-09 00:08 41.20422 -78.55678 27896 ft 388 kts 269°
2026-05-09 00:08 41.20238 -78.59270 27944 ft 392 kts 269°
2026-05-09 00:09 41.20051 -78.62872 27948 ft 391 kts 269°
2026-05-09 00:09 41.19864 -78.66478 27948 ft 391 kts 269°
2026-05-09 00:09 41.19691 -78.70075 27946 ft 390 kts 269°
2026-05-09 00:09 41.19516 -78.73661 27941 ft 389 kts 269°
2026-05-09 00:10 41.19338 -78.77247 27942 ft 389 kts 269°
2026-05-09 00:10 41.19158 -78.80787 27940 ft 389 kts 269°
2026-05-09 00:10 41.18973 -78.84376 27941 ft 389 kts 269°
2026-05-09 00:10 41.18784 -78.87955 27942 ft 389 kts 269°
2026-05-09 00:11 41.18591 -78.91547 27942 ft 389 kts 269°
2026-05-09 00:11 41.18397 -78.95124 27942 ft 389 kts 269°
2026-05-09 00:11 41.18202 -78.98710 27943 ft 389 kts 268°
2026-05-09 00:11 41.18004 -79.02295 27943 ft 389 kts 269°
2026-05-09 00:12 41.17819 -79.05875 27935 ft 389 kts 269°
2026-05-09 00:12 41.17631 -79.09471 27936 ft 391 kts 269°
2026-05-09 00:12 41.17440 -79.13079 27939 ft 390 kts 269°
2026-05-09 00:12 41.17246 -79.16676 27942 ft 390 kts 269°
2026-05-09 00:13 41.17054 -79.20265 27943 ft 390 kts 269°
2026-05-09 00:13 41.16864 -79.23862 27943 ft 390 kts 269°
2026-05-09 00:13 41.16675 -79.27409 27947 ft 390 kts 269°
2026-05-09 00:13 41.16492 -79.31010 27950 ft 390 kts 269°
2026-05-09 00:14 41.16307 -79.34593 27949 ft 390 kts 269°
2026-05-09 00:14 41.16127 -79.38198 27949 ft 391 kts 269°
2026-05-09 00:14 41.15931 -79.41783 27951 ft 391 kts 268°
2026-05-09 00:14 41.15822 -79.45381 27959 ft 389 kts 272°
2026-05-09 00:15 41.16021 -79.48960 27959 ft 389 kts 277°
2026-05-09 00:15 41.16293 -79.51310 27959 ft 388 kts 279°
2026-05-09 00:15 41.16667 -79.54871 27963 ft 389 kts 277°
2026-05-09 00:15 41.17009 -79.58432 27964 ft 389 kts 277°
2026-05-09 00:16 41.17281 -79.61998 27964 ft 388 kts 276°
2026-05-09 00:16 41.17612 -79.65558 27961 ft 389 kts 278°
2026-05-09 00:16 41.17967 -79.69121 27961 ft 389 kts 277°
2026-05-09 00:16 41.18267 -79.72683 27959 ft 389 kts 276°
2026-05-09 00:17 41.18579 -79.76244 27963 ft 388 kts 278°
2026-05-09 00:17 41.18931 -79.79803 27960 ft 389 kts 276°
2026-05-09 00:17 41.19201 -79.83393 27960 ft 390 kts 276°
2026-05-09 00:17 41.19542 -79.86965 27959 ft 390 kts 278°
2026-05-09 00:18 41.19874 -79.90539 27956 ft 390 kts 276°
2026-05-09 00:18 41.20147 -79.94129 27959 ft 390 kts 276°
2026-05-09 00:18 41.20485 -79.97662 27959 ft 390 kts 278°
2026-05-09 00:18 41.20826 -80.01232 27958 ft 390 kts 275°
2026-05-09 00:19 41.21056 -80.04826 27961 ft 390 kts 276°
2026-05-09 00:19 41.21397 -80.08401 27964 ft 390 kts 278°
2026-05-09 00:19 41.21747 -80.11979 27963 ft 390 kts 276°
2026-05-09 00:19 41.21993 -80.15566 27962 ft 390 kts 276°
2026-05-09 00:20 41.22308 -80.19152 27953 ft 393 kts 277°
2026-05-09 00:20 41.22699 -80.22760 27955 ft 393 kts 276°
2026-05-09 00:20 41.22933 -80.26380 27955 ft 393 kts 275°
2026-05-09 00:20 41.23202 -80.29942 27952 ft 392 kts 276°
2026-05-09 00:21 41.23575 -80.33574 27945 ft 392 kts 278°
2026-05-09 00:21 41.23880 -80.37179 27944 ft 392 kts 275°
2026-05-09 00:21 41.24129 -80.40795 27947 ft 392 kts 276°
2026-05-09 00:21 41.24417 -80.44399 27948 ft 393 kts 276°
2026-05-09 00:22 41.24788 -80.47990 27943 ft 392 kts 278°
2026-05-09 00:22 41.25089 -80.51557 27942 ft 393 kts 274°
2026-05-09 00:22 41.25304 -80.55169 27938 ft 394 kts 275°
2026-05-09 00:22 41.25600 -80.58793 27943 ft 395 kts 276°
2026-05-09 00:23 41.25901 -80.62421 27934 ft 395 kts 276°
2026-05-09 00:23 41.26200 -80.66045 27923 ft 395 kts 276°
2026-05-09 00:23 41.26497 -80.69675 27924 ft 395 kts 276°
2026-05-09 00:23 41.26793 -80.73303 27924 ft 395 kts 275°
2026-05-09 00:24 41.27089 -80.76944 27923 ft 395 kts 275°
2026-05-09 00:24 41.27388 -80.80576 27924 ft 395 kts 276°
2026-05-09 00:24 41.27669 -80.84158 27924 ft 395 kts 275°
2026-05-09 00:24 41.27951 -80.87803 27925 ft 395 kts 275°
2026-05-09 00:25 41.28244 -80.91434 27915 ft 395 kts 275°
2026-05-09 00:25 41.28515 -80.95079 27914 ft 397 kts 273°
2026-05-09 00:25 41.28626 -80.98749 27921 ft 397 kts 271°
2026-05-09 00:25 41.28662 -81.02417 27923 ft 396 kts 271°
2026-05-09 00:26 41.28701 -81.06075 27923 ft 397 kts 271°
2026-05-09 00:26 41.28812 -81.09749 27924 ft 397 kts 273°
2026-05-09 00:26 41.28996 -81.13412 27924 ft 397 kts 274°
2026-05-09 00:26 41.29229 -81.17066 27928 ft 397 kts 275°
2026-05-09 00:27 41.29483 -81.20725 27927 ft 397 kts 275°
2026-05-09 00:27 41.29740 -81.24338 27927 ft 397 kts 275°
2026-05-09 00:27 41.29997 -81.28035 27926 ft 397 kts 275°
2026-05-09 00:27 41.30246 -81.31703 27921 ft 398 kts 274°
2026-05-09 00:28 41.30486 -81.35316 27922 ft 398 kts 274°
2026-05-09 00:28 41.30728 -81.38988 27919 ft 398 kts 274°
2026-05-09 00:28 41.30968 -81.42650 27918 ft 398 kts 274°
2026-05-09 00:28 41.31206 -81.46319 27914 ft 398 kts 274°
2026-05-09 00:29 41.31440 -81.49993 27912 ft 398 kts 274°
2026-05-09 00:29 41.31676 -81.53667 27907 ft 398 kts 274°
2026-05-09 00:29 41.31914 -81.57335 27891 ft 398 kts 274°
2026-05-09 00:29 41.32154 -81.61006 27891 ft 398 kts 274°
2026-05-09 00:30 41.32396 -81.64678 27888 ft 398 kts 274°
2026-05-09 00:30 41.32639 -81.68349 27891 ft 401 kts 274°
2026-05-09 00:30 41.32884 -81.72052 27892 ft 400 kts 274°
2026-05-09 00:30 41.33127 -81.75740 27892 ft 400 kts 274°
2026-05-09 00:31 41.33371 -81.79427 27890 ft 400 kts 274°
2026-05-09 00:31 41.33615 -81.83119 27890 ft 400 kts 274°
2026-05-09 00:31 41.33855 -81.86767 27890 ft 400 kts 274°
2026-05-09 00:31 41.34098 -81.90457 27890 ft 400 kts 274°
2026-05-09 00:32 41.34341 -81.94148 27890 ft 400 kts 274°
2026-05-09 00:32 41.34584 -81.97840 27891 ft 400 kts 274°
2026-05-09 00:32 41.34827 -82.01533 27908 ft 400 kts 274°
2026-05-09 00:32 41.35071 -82.05225 27908 ft 400 kts 274°
2026-05-09 00:33 41.35313 -82.08913 27906 ft 400 kts 274°
2026-05-09 00:33 41.35557 -82.12607 27906 ft 400 kts 274°
2026-05-09 00:33 41.35800 -82.16301 27906 ft 400 kts 274°
2026-05-09 00:33 41.36039 -82.19993 27906 ft 400 kts 274°
2026-05-09 00:34 41.36281 -82.23686 27906 ft 400 kts 274°
2026-05-09 00:34 41.36525 -82.27378 27906 ft 400 kts 274°
2026-05-09 00:34 41.36769 -82.31071 27907 ft 401 kts 274°
2026-05-09 00:34 41.37014 -82.34770 27905 ft 400 kts 274°
2026-05-09 00:35 41.37258 -82.38457 27907 ft 401 kts 274°
2026-05-09 00:35 41.37501 -82.42154 27903 ft 402 kts 274°
2026-05-09 00:35 41.37745 -82.45859 27902 ft 402 kts 274°
2026-05-09 00:35 41.38005 -82.49594 27900 ft 401 kts 276°
2026-05-09 00:36 41.38444 -82.53198 27898 ft 402 kts 278°
2026-05-09 00:36 41.38945 -82.56861 27894 ft 403 kts 278°
2026-05-09 00:36 41.39442 -82.60538 27895 ft 402 kts 278°
2026-05-09 00:36 41.39933 -82.64209 27895 ft 402 kts 278°
2026-05-09 00:37 41.40418 -82.67875 27895 ft 403 kts 278°
2026-05-09 00:37 41.40898 -82.71548 27892 ft 403 kts 278°
2026-05-09 00:37 41.41374 -82.75228 27893 ft 402 kts 278°
2026-05-09 00:37 41.41846 -82.78905 27897 ft 402 kts 278°
2026-05-09 00:38 41.42338 -82.82578 27900 ft 403 kts 278°
2026-05-09 00:38 41.42830 -82.86260 27892 ft 403 kts 278°
2026-05-09 00:38 41.43320 -82.89945 27893 ft 403 kts 278°
2026-05-09 00:38 41.43812 -82.93624 27893 ft 403 kts 278°
2026-05-09 00:39 41.44299 -82.97258 27895 ft 403 kts 278°
2026-05-09 00:39 41.44792 -83.00930 27890 ft 403 kts 278°
2026-05-09 00:39 41.45287 -83.04610 27890 ft 403 kts 278°
2026-05-09 00:39 41.45787 -83.08288 27890 ft 403 kts 278°
2026-05-09 00:40 41.46284 -83.11973 27890 ft 403 kts 278°
2026-05-09 00:40 41.46787 -83.15654 27890 ft 403 kts 278°
2026-05-09 00:40 41.47283 -83.19327 27888 ft 403 kts 278°
2026-05-09 00:41 41.48262 -83.26699 27889 ft 403 kts 278°
2026-05-09 00:41 41.48745 -83.30380 27887 ft 403 kts 278°
2026-05-09 00:41 41.49225 -83.34072 27886 ft 403 kts 278°
2026-05-09 00:41 41.49694 -83.37712 27886 ft 403 kts 277°
2026-05-09 00:42 41.50165 -83.41402 27886 ft 403 kts 277°
2026-05-09 00:42 41.50632 -83.45091 27880 ft 403 kts 277°
2026-05-09 00:42 41.51095 -83.48782 27880 ft 403 kts 277°
2026-05-09 00:42 41.51555 -83.52476 27880 ft 403 kts 277°
2026-05-09 00:43 41.52019 -83.56163 27879 ft 404 kts 277°
2026-05-09 00:43 41.52486 -83.59855 27880 ft 404 kts 277°
2026-05-09 00:43 41.52954 -83.63552 27880 ft 404 kts 277°
2026-05-09 00:43 41.53428 -83.67244 27872 ft 404 kts 277°
2026-05-09 00:44 41.53901 -83.70932 27871 ft 404 kts 277°
2026-05-09 00:44 41.54380 -83.74638 27871 ft 404 kts 277°
2026-05-09 00:44 41.54850 -83.78285 27871 ft 404 kts 277°
2026-05-09 00:44 41.55333 -83.82025 27871 ft 404 kts 277°
2026-05-09 00:45 41.55806 -83.85679 27873 ft 404 kts 277°
2026-05-09 00:45 41.56285 -83.89376 27874 ft 404 kts 277°
2026-05-09 00:45 41.56763 -83.93075 27870 ft 405 kts 277°
2026-05-09 00:45 41.57241 -83.96788 27872 ft 405 kts 277°
2026-05-09 00:46 41.57714 -84.00486 27863 ft 405 kts 277°
2026-05-09 00:46 41.58184 -84.04194 27863 ft 405 kts 277°
2026-05-09 00:46 41.58651 -84.07901 27863 ft 405 kts 277°
2026-05-09 00:46 41.59115 -84.11610 27863 ft 405 kts 277°
2026-05-09 00:47 41.59575 -84.15312 27863 ft 404 kts 277°
2026-05-09 00:47 41.60032 -84.19024 27863 ft 405 kts 277°
2026-05-09 00:47 41.60486 -84.22732 27863 ft 405 kts 277°
2026-05-09 00:47 41.60938 -84.26443 27863 ft 405 kts 277°
2026-05-09 00:48 41.61380 -84.30105 27864 ft 405 kts 277°
2026-05-09 00:48 41.61855 -84.33868 27865 ft 406 kts 277°
2026-05-09 00:48 41.62319 -84.37547 27867 ft 406 kts 277°
2026-05-09 00:48 41.62785 -84.41268 27872 ft 406 kts 277°
2026-05-09 00:49 41.63248 -84.44989 27871 ft 406 kts 277°
2026-05-09 00:49 41.63717 -84.48712 27869 ft 406 kts 277°
2026-05-09 00:49 41.64184 -84.52438 27869 ft 406 kts 277°
2026-05-09 00:49 41.64653 -84.56159 27869 ft 406 kts 277°
2026-05-09 00:50 41.65114 -84.59876 27854 ft 400 kts 277°
2026-05-09 00:50 41.65567 -84.63535 27859 ft 399 kts 277°
2026-05-09 00:50 41.66009 -84.67209 27839 ft 400 kts 276°
2026-05-09 00:50 41.66451 -84.70913 27852 ft 404 kts 276°
2026-05-09 00:51 41.66890 -84.74616 27852 ft 403 kts 276°
2026-05-09 00:51 41.67326 -84.78320 27851 ft 403 kts 276°
2026-05-09 00:51 41.67759 -84.82028 27842 ft 403 kts 276°
2026-05-09 00:51 41.68182 -84.85680 27844 ft 403 kts 276°
2026-05-09 00:52 41.68612 -84.89385 27843 ft 403 kts 276°
2026-05-09 00:52 41.69043 -84.93089 27841 ft 403 kts 276°
2026-05-09 00:52 41.69475 -84.96795 27839 ft 403 kts 276°
2026-05-09 00:52 41.69911 -85.00508 27843 ft 403 kts 276°
2026-05-09 00:53 41.70348 -85.04213 27843 ft 404 kts 276°
2026-05-09 00:53 41.70795 -85.07926 27845 ft 405 kts 276°
2026-05-09 00:53 41.71245 -85.11650 27849 ft 405 kts 276°
2026-05-09 00:53 41.71698 -85.15381 27846 ft 405 kts 276°
2026-05-09 00:54 41.72150 -85.19092 27843 ft 405 kts 276°
2026-05-09 00:54 41.72596 -85.22813 27852 ft 405 kts 276°
2026-05-09 00:54 41.73034 -85.26531 27848 ft 405 kts 276°
2026-05-09 00:54 41.73469 -85.30257 27855 ft 405 kts 276°
2026-05-09 00:55 41.73903 -85.33989 27841 ft 405 kts 276°
2026-05-09 00:55 41.74329 -85.37669 27826 ft 405 kts 276°
2026-05-09 00:55 41.74757 -85.41396 27830 ft 405 kts 276°
2026-05-09 00:55 41.75182 -85.45121 27839 ft 405 kts 276°
2026-05-09 00:56 41.75606 -85.48851 27838 ft 405 kts 276°
2026-05-09 00:56 41.76030 -85.52578 27841 ft 405 kts 276°
2026-05-09 00:56 41.76457 -85.56307 27831 ft 405 kts 276°
2026-05-09 00:56 41.76890 -85.60034 27843 ft 405 kts 276°
2026-05-09 00:57 41.77327 -85.63770 27855 ft 405 kts 276°
2026-05-09 00:57 41.77769 -85.67499 27842 ft 405 kts 276°
2026-05-09 00:57 41.78217 -85.71232 27844 ft 405 kts 276°
2026-05-09 00:57 41.78668 -85.74957 27848 ft 405 kts 276°
2026-05-09 00:58 41.79124 -85.78684 27837 ft 405 kts 276°
2026-05-09 00:58 41.79585 -85.82419 27839 ft 406 kts 276°
2026-05-09 00:58 41.80043 -85.86097 27823 ft 406 kts 277°
2026-05-09 00:58 41.80512 -85.89827 27837 ft 406 kts 277°
2026-05-09 00:59 41.80984 -85.93551 27831 ft 405 kts 277°
2026-05-09 00:59 41.81427 -85.97291 27517 ft 408 kts 276°
2026-05-09 00:59 41.81865 -86.01025 26971 ft 400 kts 276°
2026-05-09 00:59 41.82297 -86.04620 26422 ft 382 kts 277°
2026-05-09 01:00 41.82722 -86.08073 25869 ft 370 kts 277°
2026-05-09 01:00 41.83135 -86.11440 25328 ft 364 kts 277°
2026-05-09 01:00 41.83531 -86.14783 24812 ft 363 kts 277°
2026-05-09 01:00 41.83920 -86.18121 24302 ft 361 kts 277°
2026-05-09 01:01 41.84291 -86.21451 23817 ft 362 kts 277°
2026-05-09 01:01 41.84666 -86.24794 23310 ft 361 kts 278°
2026-05-09 01:01 41.85046 -86.28116 22747 ft 359 kts 278°
2026-05-09 01:01 41.85428 -86.31412 22168 ft 358 kts 278°
2026-05-09 01:02 41.85816 -86.34706 21626 ft 356 kts 278°
2026-05-09 01:02 41.86197 -86.37937 21082 ft 354 kts 278°
2026-05-09 01:02 41.86579 -86.41201 20550 ft 353 kts 278°
2026-05-09 01:02 41.86922 -86.44462 20017 ft 352 kts 277°
2026-05-09 01:03 41.87249 -86.47722 19499 ft 352 kts 278°
2026-05-09 01:03 41.87586 -86.50971 18985 ft 351 kts 277°
2026-05-09 01:03 41.87901 -86.54207 18485 ft 350 kts 278°
2026-05-09 01:03 41.88111 -86.56352 18155 ft 349 kts 277°
2026-05-09 01:04 41.88418 -86.59592 17582 ft 349 kts 277°
2026-05-09 01:04 41.88729 -86.62812 17023 ft 347 kts 277°
2026-05-09 01:04 41.89040 -86.66010 16470 ft 345 kts 277°
2026-05-09 01:04 41.89314 -86.69199 15930 ft 343 kts 276°
2026-05-09 01:05 41.89642 -86.72370 15397 ft 342 kts 278°
2026-05-09 01:05 41.89937 -86.75528 14876 ft 340 kts 275°
2026-05-09 01:05 41.90550 -86.81811 13857 ft 338 kts 277°
2026-05-09 01:06 41.90652 -86.84958 13315 ft 337 kts 269°
2026-05-09 01:06 41.90494 -86.88089 12769 ft 336 kts 266°
2026-05-09 01:06 41.90309 -86.91170 12228 ft 334 kts 266°
2026-05-09 01:06 41.90127 -86.94279 11690 ft 332 kts 266°
2026-05-09 01:07 41.89937 -86.97360 11163 ft 331 kts 266°
2026-05-09 01:07 41.89740 -87.00413 11051 ft 327 kts 266°
2026-05-09 01:07 41.89547 -87.03458 11050 ft 329 kts 266°
2026-05-09 01:07 41.89358 -87.06514 11054 ft 329 kts 267°
2026-05-09 01:08 41.89171 -87.09576 11054 ft 329 kts 266°
2026-05-09 01:08 41.88979 -87.12636 11052 ft 329 kts 266°
2026-05-09 01:08 41.88790 -87.15697 11052 ft 329 kts 267°
2026-05-09 01:08 41.88605 -87.18757 11047 ft 329 kts 267°
2026-05-09 01:09 41.88419 -87.21822 11041 ft 329 kts 267°
2026-05-09 01:09 41.88235 -87.24865 11049 ft 329 kts 267°
2026-05-09 01:09 41.88053 -87.27942 11046 ft 329 kts 267°
2026-05-09 01:09 41.87874 -87.30999 11040 ft 329 kts 267°
2026-05-09 01:10 41.87690 -87.34061 11037 ft 330 kts 267°
2026-05-09 01:10 41.87506 -87.37133 11041 ft 330 kts 267°
2026-05-09 01:10 41.87338 -87.40191 11031 ft 329 kts 269°
2026-05-09 01:10 41.87411 -87.43213 11027 ft 328 kts 276°
2026-05-09 01:11 41.87639 -87.46269 11036 ft 328 kts 277°
2026-05-09 01:11 41.87873 -87.49312 11039 ft 328 kts 277°
2026-05-09 01:11 41.88112 -87.52360 11039 ft 328 kts 277°
2026-05-09 01:11 41.88354 -87.55406 11030 ft 328 kts 277°
2026-05-09 01:12 41.88599 -87.58455 11035 ft 328 kts 277°
2026-05-09 01:12 41.88781 -87.61505 10990 ft 329 kts 273°
2026-05-09 01:12 41.88814 -87.64570 10628 ft 324 kts 272°
2026-05-09 01:12 41.88838 -87.67534 10249 ft 311 kts 272°
2026-05-09 01:13 41.88864 -87.70384 9865 ft 301 kts 272°
2026-05-09 01:13 41.88893 -87.73164 9456 ft 293 kts 272°
2026-05-09 01:13 41.88926 -87.75858 9107 ft 284 kts 272°
2026-05-09 01:13 41.88961 -87.78466 8804 ft 275 kts 272°
2026-05-09 01:14 41.88999 -87.80999 8525 ft 269 kts 272°
2026-05-09 01:14 41.89041 -87.83469 8224 ft 267 kts 272°
2026-05-09 01:14 41.89081 -87.85955 8005 ft 265 kts 272°
2026-05-09 01:14 41.89126 -87.88404 7994 ft 262 kts 272°
2026-05-09 01:15 41.89168 -87.90856 7998 ft 262 kts 272°
2026-05-09 01:15 41.89212 -87.93303 8002 ft 263 kts 272°
2026-05-09 01:15 41.89256 -87.95759 8004 ft 263 kts 272°
2026-05-09 01:15 41.89304 -87.98224 7826 ft 266 kts 272°
2026-05-09 01:16 41.89357 -88.00711 7456 ft 267 kts 272°
2026-05-09 01:16 41.89415 -88.03193 7079 ft 265 kts 272°
2026-05-09 01:16 41.89479 -88.05656 6705 ft 263 kts 272°
2026-05-09 01:17 41.89619 -88.10548 5953 ft 263 kts 272°
2026-05-09 01:17 41.89694 -88.12999 5567 ft 262 kts 272°
2026-05-09 01:17 41.89771 -88.15409 5191 ft 261 kts 272°
2026-05-09 01:17 41.89854 -88.17826 5002 ft 257 kts 272°
2026-05-09 01:18 41.89936 -88.20251 4998 ft 256 kts 272°
2026-05-09 01:18 41.90020 -88.22614 4998 ft 257 kts 272°
2026-05-09 01:18 41.90105 -88.25012 5000 ft 258 kts 272°
2026-05-09 01:18 41.90190 -88.27414 5000 ft 258 kts 272°
2026-05-09 01:19 41.90275 -88.29814 5002 ft 258 kts 272°
2026-05-09 01:19 41.90362 -88.32219 5001 ft 258 kts 272°
2026-05-09 01:19 41.90442 -88.34624 5003 ft 257 kts 272°
2026-05-09 01:19 41.90527 -88.37023 5002 ft 257 kts 272°
2026-05-09 01:20 41.90733 -88.39393 4984 ft 251 kts 288°
2026-05-09 01:20 41.91714 -88.41206 4979 ft 238 kts 325°
2026-05-09 01:20 41.93256 -88.41749 4977 ft 231 kts
2026-05-09 01:20 41.94665 -88.40823 4993 ft 231 kts 45°
2026-05-09 01:21 41.95617 -88.39077 5015 ft 233 kts 57°
2026-05-09 01:21 41.96465 -88.37220 5013 ft 233 kts 57°
2026-05-09 01:21 41.97099 -88.35227 4959 ft 235 kts 88°
2026-05-09 01:21 41.96825 -88.33077 5025 ft 236 kts 107°
2026-05-09 01:22 41.96470 -88.30928 5025 ft 235 kts 97°
2026-05-09 01:22 41.96429 -88.28743 5012 ft 234 kts 87°
2026-05-09 01:22 41.96507 -88.26555 5008 ft 235 kts 88°
2026-05-09 01:22 41.96527 -88.24358 5006 ft 235 kts 90°
2026-05-09 01:23 41.96509 -88.22188 5003 ft 226 kts 90°
2026-05-09 01:23 41.96523 -88.20123 4972 ft 214 kts 89°
2026-05-09 01:23 41.96526 -88.18180 4838 ft 206 kts 90°
2026-05-09 01:23 41.96528 -88.16207 4346 ft 216 kts 89°
2026-05-09 01:24 41.96557 -88.14208 4050 ft 209 kts 89°
2026-05-09 01:24 41.96573 -88.12274 3686 ft 205 kts 90°
2026-05-09 01:24 41.96566 -88.10445 3413 ft 190 kts 91°
2026-05-09 01:24 41.96548 -88.08665 2992 ft 187 kts 91°
2026-05-09 01:25 41.96538 -88.06978 2650 ft 178 kts 90°
2026-05-09 01:25 41.96558 -88.05384 2408 ft 164 kts 89°
2026-05-09 01:25 41.96568 -88.03936 2262 ft 155 kts 90°
2026-05-09 01:25 41.96558 -88.02537 2051 ft 148 kts 92°
2026-05-09 01:26 41.96552 -88.01155 1862 ft 148 kts 91°
2026-05-09 01:26 41.96560 -87.99745 1687 ft 153 kts 90°
2026-05-09 01:26 41.96568 -87.98319 1508 ft 150 kts 91°
2026-05-09 01:26 41.96576 -87.96956 1350 ft 141 kts 93°
2026-05-09 01:27 41.96564 -87.95654 1155 ft 137 kts 93°
2026-05-09 01:27 41.96568 -87.94399 926 ft 132 kts 92°
2026-05-09 01:27 41.96572 -87.93188 701 ft 128 kts 92°
2026-05-09 01:27 41.96570 -87.92116 673 ft 91 kts 90°
2026-05-09 01:28 41.96572 -87.91466 671 ft 57 kts 90°
2026-05-09 01:28 41.96584 -87.91021 673 ft 35 kts 81°
2026-05-09 01:28 41.96638 -87.90806 672 ft 18 kts 62°
2026-05-09 01:28 41.96691 -87.90684 672 ft 15 kts 59°
2026-05-09 01:29 41.96736 -87.90548 672 ft 17 kts 79°
2026-05-09 01:29 41.96739 -87.90381 672 ft 19 kts 90°
2026-05-09 01:29 41.96740 -87.90197 672 ft 21 kts 90°
2026-05-09 01:29 41.96740 -87.89995 672 ft 22 kts 89°
2026-05-09 01:30 41.96740 -87.89781 673 ft 24 kts 90°
2026-05-09 01:30 41.96740 -87.89577 672 ft 15 kts 90°
2026-05-09 01:30 41.96758 -87.89454 673 ft 14 kts 39°
2026-05-09 01:30 41.96860 -87.89436 671 ft 16 kts
2026-05-09 01:31 41.96979 -87.89437 673 ft 16 kts 360°
2026-05-09 01:31 41.97021 -87.89438 673 ft 0 kts 360°
2026-05-09 01:32 41.97044 -87.89442 673 ft 7 kts 338°
2026-05-09 01:32 41.97089 -87.89520 669 ft 15 kts 294°
2026-05-09 01:32 41.97158 -87.89640 672 ft 18 kts 323°
2026-05-09 01:32 41.97250 -87.89729 672 ft 13 kts 298°
2026-05-09 01:33 41.97221 -87.89855 672 ft 17 kts 245°
2026-05-09 01:33 41.97205 -87.90024 672 ft 20 kts 270°
2026-05-09 01:33 41.97205 -87.90219 672 ft 22 kts 270°
2026-05-09 01:33 41.97208 -87.90435 672 ft 24 kts 272°
2026-05-09 01:34 41.97221 -87.90650 672 ft 16 kts 279°
2026-05-09 01:34 41.97271 -87.90792 672 ft 18 kts 310°
2026-05-09 01:34 41.97367 -87.90920 672 ft 21 kts 317°
2026-05-09 01:34 41.97455 -87.91020 671 ft 15 kts 321°
2026-05-09 01:35 41.97517 -87.91039 672 ft 9 kts 48°
2026-05-09 01:35 41.97546 -87.90953 672 ft 11 kts 71°
2026-05-09 01:35 41.97573 -87.90850 672 ft 9 kts 69°
2026-05-09 01:35 41.97579 -87.90813 672 ft 1 kts 109°
2026-05-09 01:36 41.97571 -87.90801 670 ft 3 kts 146°
2026-05-09 01:36 41.97543 -87.90788 672 ft 3 kts 165°
2026-05-09 01:36 41.97535 -87.90785 672 ft 0 kts 166°